This is the latest recevied weather packets stored in our database for station/object LU8FJH-13. If no packets are shown the sender has not sent any weather packets the latest 10 day(s).
| Time | Temp. | Humidity | Pressure | Rain* | Wind** | Luminosity | Snow |
|---|---|---|---|---|---|---|---|
| 1777591312 | 20.56° C | 62% | 1010 hPa | 0 mm | - | - | - |
| 1777590772 | 20.56° C | 64% | 1010 hPa | 0 mm | - | - | - |
| 1777590232 | 20.56° C | 65% | 1010 hPa | 0 mm | - | - | - |
| 1777589692 | 20.56° C | 65% | 1010 hPa | 0 mm | - | - | - |
| 1777589152 | 20.56° C | 66% | 1009.9 hPa | 0 mm | - | - | - |
| 1777588612 | 20.56° C | 65% | 1009.9 hPa | 0 mm | - | - | - |
| 1777588072 | 21.11° C | 64% | 1009.9 hPa | 0 mm | - | - | - |
| 1777587532 | 21.11° C | 62% | 1009.9 hPa | 0 mm | - | - | - |
| 1777586992 | 21.67° C | 61% | 1010.2 hPa | 0 mm | - | - | - |
| 1777586452 | 21.67° C | 61% | 1010.1 hPa | 0 mm | - | - | - |
| 1777585912 | 21.67° C | 60% | 1009.9 hPa | 0 mm | - | - | - |
| 1777585372 | 22.22° C | 58% | 1009.9 hPa | 0 mm | - | - | - |
| 1777584832 | 22.22° C | 57% | 1009.8 hPa | 0 mm | - | - | - |
| 1777584292 | 22.22° C | 55% | 1010.1 hPa | 0 mm | - | - | - |
| 1777583752 | 22.22° C | 54% | 1009.9 hPa | 0 mm | - | - | - |
| 1777583213 | 23.33° C | 54% | 1010.1 hPa | 0 mm | - | - | - |
| 1777582673 | 23.33° C | 54% | 1010.1 hPa | 0 mm | - | - | - |
| 1777582132 | 23.33° C | 53% | 1010.2 hPa | 0 mm | - | - | - |
| 1777581592 | 23.89° C | 52% | 1010.2 hPa | 0 mm | - | - | - |
| 1777581052 | 23.89° C | 51% | 1010.4 hPa | 0 mm | - | - | - |
| 1777580512 | 24.44° C | 51% | 1010.2 hPa | 0 mm | - | - | - |
| 1777579972 | 25° C | 48% | 1010.4 hPa | 0 mm | - | - | - |
| 1777579432 | 25.56° C | 45% | 1010.5 hPa | 0 mm | - | - | - |
| 1777578892 | 26.67° C | 42% | 1010.5 hPa | 0 mm | - | - | - |
| 1777578352 | 27.22° C | 41% | 1010.5 hPa | 0 mm | - | - | - |
* Rain latest hour (hover to see other rain measurements)
** Current wind speed in m/s (hover to see current wind gust speed)